Terminal Aerodrome Forecast
Issued by NWS

Home | Current Version | Previous Version | Text Only | Print | Product List | Glossary On
Versions: 1 2 3 4 5 6 7 8 9 10 11 12 13 14
000
FTUS43 KIWX 311100
TAFSBN
TAF
KSBN 311120Z 3112/0112 VRB02KT 5SM BR FEW060
     FM311300 24003KT P6SM FEW060 SCT100
     FM311500 26009KT P6SM SCT060
     FM010100 22004KT P6SM BKN060=

USA.gov is the U.S. government's official web portal to all federal, state and local government web resources and services.